This is the latest recevied weather packets stored in our database for station/object KI6SYE. If no packets are shown the sender has not sent any weather packets the latest 10 day(s).
| Time | Temp. | Humidity | Pressure | Rain* | Wind** | Luminosity | Snow |
|---|---|---|---|---|---|---|---|
| 1788215703 | 23.33° C | 79% | 1012.6 hPa | 0 mm | - | 63 W/m² | - |
| 1788215400 | 23.33° C | 78% | 1012.6 hPa | 0 mm | - | 65 W/m² | - |
| 1788215095 | 23.89° C | 77% | 1012.9 hPa | 0 mm | - | 149 W/m² | - |
| 1788214794 | 23.33° C | 78% | 1012.8 hPa | 0 mm | - | 206 W/m² | - |
| 1788214491 | 23.89° C | 78% | 1013.2 hPa | 0 mm | - | 558 W/m² | - |
| 1788214186 | 23.89° C | 78% | 1013.3 hPa | 0 mm | - | 571 W/m² | - |
| 1788213881 | 23.89° C | 76% | 1013.2 hPa | 0 mm | - | 585 W/m² | - |
| 1788213576 | 23.89° C | 77% | 1013.1 hPa | 0 mm | - | 594 W/m² | - |
| 1788213272 | 23.33° C | 77% | 1013 hPa | 0 mm | - | 605 W/m² | - |
| 1788212968 | 23.89° C | 76% | 1013.4 hPa | 0 mm | - | 615 W/m² | - |
| 1788212665 | 23.89° C | 77% | 1013.2 hPa | 0 mm | - | 626 W/m² | - |
| 1788212361 | 23.89° C | 75% | 1013 hPa | 0 mm | - | 634 W/m² | - |
| 1788212057 | 24.44° C | 75% | 1013.3 hPa | 0 mm | - | 646 W/m² | - |
| 1788211752 | 23.89° C | 75% | 1013.1 hPa | 0 mm | - | 657 W/m² | - |
| 1788211449 | 23.89° C | 76% | 1013.3 hPa | 0 mm | - | 663 W/m² | - |
| 1788211147 | 23.89° C | 77% | 1013.3 hPa | 0 mm | - | 671 W/m² | - |
| 1788210843 | 23.89° C | 75% | 1013.5 hPa | 0 mm | - | 677 W/m² | - |
| 1788210541 | 23.89° C | 76% | 1013.4 hPa | 0 mm | - | 684 W/m² | - |
| 1788210237 | 23.89° C | 76% | 1013.6 hPa | 0 mm | - | 690 W/m² | - |
| 1788209933 | 23.89° C | 75% | 1013.2 hPa | 0 mm | - | 696 W/m² | - |
| 1788209628 | 23.89° C | 75% | 1013.6 hPa | 0 mm | - | 703 W/m² | - |
| 1788209323 | 23.89° C | 75% | 1013.5 hPa | 0 mm | - | 710 W/m² | - |
| 1788209022 | 24.44° C | 75% | 1013.5 hPa | 0 mm | - | 713 W/m² | - |
| 1788208721 | 23.89° C | 77% | 1013.8 hPa | 0 mm | - | 718 W/m² | - |
| 1788208411 | 23.89° C | 76% | 1013.6 hPa | 0 mm | - | 720 W/m² | - |
* Rain latest hour (hover to see other rain measurements)
** Current wind speed in m/s (hover to see current wind gust speed)